LX2ZZ-13 Weather Reports


time (UTC)temp
F
wind
direction
speed
knots
gust
knots
rain 1hr
in
rain 24hr
in
rain mn
in
humidity
%
barometer
mb
20260506213526 49 0.0 1.7 0.00 0.11 0.11 88 1010.2
20260506212523 49 241 0.9 1.7 0.00 0.11 0.11 87 1010.2
20260506211519 49 203 0.0 1.7 0.00 0.11 0.11 87 1010.0
20260506210517 49 203 0.0 1.7 0.00 0.11 0.11 87 1010.0
20260506205613 49 0.0 1.7 0.00 0.11 0.11 87 1010.0
20260506204610 49 0.0 1.7 0.00 0.11 0.11 87 1009.9
20260506203607 49 0.0 0.0 0.00 0.11 0.11 87 1009.9
20260506202604 49 0.0 0.0 0.00 0.11 0.11 85 1010.0
20260506201601 49 0.0 0.0 0.00 0.11 0.11 85 1009.8
20260506200558 49 0.0 0.0 0.00 0.12 0.11 85 1009.7
20260506195555 49 0.0 0.0 0.00 0.13 0.11 85 1009.7
20260506194552 49 0.0 0.0 0.00 0.17 0.11 85 1009.5
20260506193549 50 0.0 0.0 0.00 0.22 0.11 86 1009.3
20260506192546 50 0.0 0.0 0.00 0.27 0.11 83 1009.2
20260506191543 50 0.0 1.7 0.00 0.30 0.11 81 1009.1
20260506190539 50 45 0.0 1.7 0.00 0.33 0.11 80 1008.9
20260506185536 51 309 0.9 3.5 0.00 0.37 0.11 79 1008.8
20260506184533 51 347 0.9 3.5 0.00 0.37 0.11 79 1008.8
20260506183530 51 0.0 1.7 0.00 0.40 0.11 81 1008.7
20260506182527 51 158 0.0 1.7 0.00 0.43 0.11 81 1008.5
20260506181524 52 35 0.9 3.5 0.00 0.45 0.11 80 1008.4
20260506180521 52 296 0.9 3.5 0.00 0.48 0.11 80 1008.3
20260506175518 52 21 1.7 3.5 0.00 0.48 0.11 81 1008.2
20260506174615 52 328 0.9 3.5 0.00 0.50 0.11 81 1008.1
20260506173612 52 46 0.9 3.5 0.00 0.52 0.11 82 1008.0
20260506172609 53 2 0.9 6.1 0.00 0.53 0.11 80 1007.9
20260506171606 53 347 1.7 3.5 0.00 0.53 0.11 79 1007.8
20260506170603 53 23 1.7 6.1 0.00 0.53 0.11 80 1007.8
20260506165559 53 14 0.9 5.2 0.00 0.53 0.11 81 1007.8
20260506164557 53 358 0.9 3.5 0.00 0.53 0.11 79 1007.8
20260506163553 53 350 0.9 3.5 0.00 0.53 0.11 79 1007.8
20260506162550 53 342 0.0 1.7 0.00 0.53 0.11 81 1007.7
20260506161547 53 15 0.9 3.5 0.00 0.53 0.11 80 1007.7
20260506160544 54 22 1.7 5.2 0.00 0.53 0.11 79 1007.7
20260506155541 54 345 0.9 1.7 0.00 0.53 0.11 80 1007.8
20260506154537 53 359 0.9 3.5 0.00 0.53 0.11 82 1007.6
20260506153534 55 11 1.7 6.1 0.00 0.54 0.11 77 1007.6
20260506152531 55 58 1.7 5.2 0.00 0.54 0.11 76 1007.4
20260506151528 54 16 1.7 3.5 0.00 0.56 0.11 80 1007.3
20260506150525 54 320 0.9 6.1 0.00 0.56 0.11 80 1007.3
20260506145522 54 329 0.9 3.5 0.00 0.57 0.11 81 1007.2
20260506144559 53 349 0.9 3.5 0.00 0.57 0.11 83 1007.2
20260506143516 54 248 2.6 5.2 0.00 0.57 0.11 80 1007.1
20260506142613 55 352 0.9 1.7 0.00 0.58 0.11 82 1007.1
20260506141610 53 290 0.9 3.5 0.00 0.58 0.11 84 1007.3
20260506140607 53 321 0.9 3.5 0.00 0.59 0.11 85 1007.4
20260506135623 53 19 1.7 3.5 0.00 0.59 0.11 85 1007.4
20260506134600 53 17 1.7 3.5 0.00 0.60 0.11 85 1007.4
20260506133557 53 345 0.0 1.7 0.00 0.60 0.11 86 1007.4
20260506132554 53 342 0.9 1.7 0.00 0.61 0.11 85 1007.4
20260506131611 54 301 0.9 1.7 0.00 0.61 0.11 84 1007.2
20260506130548 54 291 0.9 3.5 0.00 0.63 0.11 83 1007.2
20260506125545 54 315 0.9 3.5 0.00 0.63 0.11 86 1007.0
20260506124601 53 318 0.9 3.5 0.00 0.64 0.11 85 1007.0
20260506123538 53 286 0.9 1.7 0.00 0.65 0.11 86 1006.9
20260506122535 54 328 0.9 1.7 0.00 0.67 0.11 85 1006.9
20260506121612 54 309 0.9 3.5 0.00 0.70 0.11 84 1006.7
20260506120529 54 5 0.9 3.5 0.00 0.71 0.11 85 1006.6
20260506115526 53 332 0.9 3.5 0.00 0.72 0.11 85 1006.6
20260506114522 54 54 0.9 3.5 0.00 0.72 0.11 86 1006.6
20260506113520 53 336 0.9 3.5 0.00 0.72 0.11 85 1006.4
20260506112517 54 339 1.7 3.5 0.00 0.72 0.11 86 1006.4
20260506111614 54 357 0.9 1.7 0.00 0.72 0.11 86 1006.3
20260506110611 54 32 1.7 3.5 0.00 0.72 0.11 86 1006.3
20260506105608 54 293 0.9 3.5 0.00 0.72 0.11 88 1006.2
20260506104605 53 293 0.0 1.7 0.00 0.72 0.11 88 1006.1
20260506103601 53 232 0.9 1.7 0.00 0.72 0.11 88 1006.3
20260506102558 53 297 0.9 3.5 0.00 0.72 0.11 88 1006.0
20260506101555 54 285 0.0 1.7 0.00 0.72 0.11 88 1006.0
20260506100552 53 326 0.0 1.7 0.00 0.72 0.11 90 1005.9
20260506095548 52 1 0.9 3.5 0.00 0.72 0.11 91 1005.8
20260506094545 53 20 1.7 3.5 0.00 0.72 0.11 90 1005.8
20260506093602 54 350 0.9 3.5 0.00 0.72 0.11 90 1005.8
20260506092539 53 302 0.9 1.7 0.00 0.72 0.11 91 1005.6
20260506091536 54 337 0.9 1.7 0.00 0.72 0.11 91 1005.5
20260506090533 54 346 0.9 3.5 0.00 0.72 0.11 91 1005.5
20260506085530 53 356 0.9 3.5 0.00 0.72 0.11 93 1005.5
20260506084527 53 347 0.9 3.5 0.01 0.72 0.11 93 1005.3
20260506083524 53 282 0.9 1.7 0.01 0.72 0.11 95 1005.2
20260506082520 52 304 0.9 3.5 0.01 0.72 0.11 96 1005.1
20260506081517 52 61 0.9 3.5 0.01 0.72 0.11 96 1005.1
20260506080614 52 291 0.0 1.7 0.01 0.72 0.11 97 1005.1
20260506072602 52 315 0.0 1.7 0.00 0.71 0.09 96 1005.1
20260506071559 52 0 0.0 1.7 0.01 0.71 0.09 96 1004.9
20260506070556 52 349 0.0 1.7 0.02 0.71 0.09 97 1005.0
20260506061540 51 338 0.0 1.7 0.04 0.70 0.08 98 1004.6
20260506060557 52 31 0.9 1.7 0.02 0.69 0.07 98 1004.6
20260506050518 52 0.0 0.0 0.05 0.66 0.05 98 1004.2
20260506044612 52 0.0 1.7 0.05 0.66 0.05 98 1004.2
20260506043609 52 0.0 0.0 0.05 0.66 0.05 98 1004.3
20260506042606 52 0.0 1.7 0.04 0.65 0.04 98 1004.4
20260506041603 52 0.0 0.0 0.02 0.64 0.02 98 1004.4
20260506040600 52 0.0 0.0 0.00 0.61 0.00 97 1004.4
20260506035557 52 0.0 0.0 0.00 0.61 0.00 97 1004.5
20260506034554 52 0.0 0.0 0.00 0.61 0.00 97 1004.6
20260506033550 52 0.0 0.0 0.00 0.61 0.00 98 1004.7
20260506032608 52 0.0 0.0 0.00 0.61 0.00 97 1004.7
20260506031544 52 0.0 0.0 0.00 0.61 0.00 97 1004.7
20260506030541 52 225 0.0 1.7 0.00 0.61 0.00 97 1004.7
20260506025618 52 203 0.0 1.7 0.00 0.61 0.00 97 1004.8
20260506024534 52 180 0.0 1.7 0.00 0.61 0.00 97 1004.8
20260506023531 52 232 0.0 1.7 0.00 0.61 0.00 97 1004.8
20260506022528 52 181 0.9 3.5 0.00 0.61 0.00 97 1004.8
20260506021525 52 158 0.0 1.7 0.00 0.61 0.00 97 1004.8
20260506020542 53 226 0.0 1.7 0.00 0.61 0.00 97 1004.8
20260506015519 53 210 0.0 1.7 0.00 0.61 0.00 96 1004.8
20260506014516 53 169 0.0 1.7 0.00 0.61 0.00 96 1004.9
20260506013613 53 203 0.0 1.7 0.00 0.61 0.00 96 1005.1
20260506012610 53 219 0.9 3.5 0.00 0.61 0.00 96 1005.1
20260506011608 53 209 0.9 3.5 0.00 0.61 0.00 96 1005.2
20260506010604 53 180 0.0 1.7 0.00 0.61 0.00 96 1005.1
20260506005601 53 274 0.9 1.7 0.00 0.61 0.00 96 1005.1
20260506004558 53 150 0.9 3.5 0.00 0.61 0.00 96 1005.2
20260506003554 53 158 0.0 1.7 0.00 0.61 0.00 96 1005.3
20260506002551 53 180 0.9 1.7 0.00 0.61 0.00 96 1005.4
20260506001608 53 179 0.9 3.5 0.00 0.61 0.00 96 1005.3
20260506000545 53 158 0.0 1.7 0.00 0.61 0.00 97 1005.4
20260505235542 53 113 0.0 1.7 0.00 0.61 0.00 97 1005.7
20260505234539 54 209 0.9 3.5 0.00 0.61 0.00 97 1005.6
20260505233536 54 203 0.0 3.5 0.00 0.61 0.00 97 1005.6
20260505232533 54 158 0.9 3.5 0.00 0.61 0.00 98 1005.6
20260505231530 54 151 0.9 3.5 0.00 0.61 0.00 99 1005.7
20260505230527 54 186 0.0 1.7 0.00 0.61 0.00 99 1005.7
20260505225524 54 225 0.0 1.7 0.00 0.61 0.00 99 1005.7
20260505224521 53 225 0.0 1.7 0.00 0.61 0.00 99 1005.8
20260505223518 53 0.0 1.7 0.00 0.61 0.00 99 1005.8
20260505222614 53 0.0 0.0 0.00 0.61 0.00 99 1005.9
20260505221611 53 0.0 0.0 0.00 0.61 0.00 99 1005.8
20260505220609 53 0.0 0.0 0.00 0.61 0.00 99 1006.0
20260505215605 53 0.0 0.0 0.00 0.61 0.61 99 1006.1
20260505214601 53 0.0 0.0 0.00 0.61 0.61 99 1006.0